[Date Prev][Date Next][Thread Prev][Thread Next] - [Date Index][Thread Index][Author Index]
2 Line ISS Keps 10-18
- Subject: [sarex] 2 Line ISS Keps 10-18
- From: "Dave Larsen PhD" <doc@xxxxxxxxxxx>
- Date: Mon, 18 Oct 2004 01:56:23 -0700
ISS
1 25544U 98067A 04292.34798235 .00022325 00000-0 19185-3 0 9405
2 25544 51.6363 57.3121 0008931 240.9129 213.9908 15.69219127337663
----
Via the sarex mailing list at AMSAT.ORG courtesy of AMSAT-NA.
To unsubscribe, send "unsubscribe sarex" to Majordomo@amsat.org
AMSAT Home